DW3649 Weather Reports


Display with metric or nautical units.
time (UTC)temp
F
wind
direction
speed
MPH
gust
MPH
rain 1hr
in
rain 24hr
in
rain mn
in
humidity
%
barometer
mb
20221210080100 63 142 10.0 0.0 0.00 0.00 0.00 84 1012.8
20221210074558 63 137 12.0 0.0 0.00 0.00 0.00 85 1012.7
20221210073056 63 140 9.0 0.0 0.00 0.00 0.00 84 1012.8
20221210071554 63 141 8.0 0.0 0.00 0.00 0.00 83 1012.9
20221210070052 63 165 6.0 0.0 0.00 0.00 0.00 83 1012.9
20221210064554 62 141 4.0 0.0 0.00 0.00 0.00 84 1012.8
20221210063100 62 138 6.0 0.0 0.00 0.00 0.00 86 1012.8
20221210061604 0 0.0 0.0 0.00 0.00 0.00 1012.9
20221210060046 0 0.0 0.0 0.00 0.00 0.00 1013.0
20221210054541 0 0.0 0.0 0.00 0.00 0.00 1013.1
20221210053036 0 0.0 0.0 0.00 0.00 0.00 1013.0
20221210051529 0 0.0 0.0 0.00 0.00 0.00 1012.9
20221210050025 0 0.0 0.0 0.00 0.00 0.00 1013.0
20221210044520 0 0.0 0.0 0.00 0.00 0.00 1013.0
20221210043017 0 0.0 0.0 0.00 0.00 0.00 1012.9
20221210041514 0 0.0 0.0 0.00 0.00 0.00 1012.8
20221210040007 0 0.0 0.0 0.00 0.00 0.00 1012.8
20221210034503 0 0.0 0.0 0.00 0.00 0.00 1012.8
20221210033101 0 0.0 0.0 0.00 0.00 0.00 1012.7
20221210031559 0 0.0 0.0 0.00 0.00 0.00 1012.7
20221210030054 0 0.0 0.0 0.00 0.00 0.00 1012.7
20221210024545 0 0.0 0.0 0.00 0.00 0.00 1013.0
20221210023047 62 153 0.0 0.0 0.00 0.00 0.00 91 1013.1
20221210021547 62 180 0.0 0.0 0.00 0.00 0.00 91 1013.4
20221210020039 62 134 0.0 0.0 0.00 0.00 0.00 91 1013.3
20221210014536 62 140 0.0 0.0 0.00 0.00 0.00 91 1013.2
20221210013035 62 150 5.0 0.0 0.00 0.00 0.00 91 1013.3
20221210011536 62 152 11.0 0.0 0.00 0.00 0.00 91 1013.4
20221210010048 62 142 5.0 0.0 0.00 0.00 0.00 91 1013.6
20221210004532 62 167 6.0 0.0 0.00 0.00 0.00 90 1013.6
20221210003029 62 140 6.0 0.0 0.00 0.00 0.00 90 1013.5
20221210001530 62 148 7.0 0.0 0.00 0.00 0.00 90 1014.0
20221210000029 62 144 8.0 0.0 0.00 0.00 0.00 90 1013.8
20221209234529 62 142 6.0 0.0 0.00 0.00 0.00 90 1013.6
20221209233028 62 140 9.0 0.0 0.00 0.00 0.00 90 1013.7
20221209231526 62 150 10.0 0.0 0.00 0.00 0.00 90 1013.5
20221209230025 62 146 12.0 0.0 0.00 0.00 0.00 90 1013.7
20221209224527 62 140 13.0 0.0 0.00 0.00 0.00 89 1013.6
20221209223020 62 144 11.0 0.0 0.00 0.00 0.00 89 1014.2
20221209221521 62 145 11.0 0.0 0.00 0.00 0.00 89 1014.3
20221209220013 62 151 9.0 0.0 0.00 0.00 0.00 88 1014.4
20221209214520 62 142 9.0 0.0 0.00 0.00 0.00 87 1014.7
20221209213017 62 136 12.0 0.0 0.00 0.00 0.00 86 1014.6
20221209211514 62 161 7.0 0.0 0.00 0.00 0.00 86 1014.4
20221209210010 62 169 6.0 0.0 0.00 0.00 0.00 87 1014.5
20221209204510 62 149 7.0 0.0 0.00 0.00 0.00 87 1014.6
20221209203011 62 134 5.0 0.0 0.00 0.00 0.00 87 1014.9
20221209201508 62 160 5.0 0.0 0.00 0.00 0.00 88 1014.7
20221209200005 62 138 8.0 0.0 0.00 0.00 0.00 88 1014.9
20221209194505 62 148 6.0 0.0 0.00 0.00 0.00 88 1015.1
20221209193005 62 140 5.0 0.0 0.00 0.00 0.00 88 1015.2
20221209191504 62 155 8.0 0.0 0.00 0.00 0.00 87 1015.3
20221209190003 62 144 7.0 0.0 0.00 0.00 0.00 87 1015.1
20221209184508 62 152 8.0 0.0 0.00 0.00 0.00 86 1015.1
20221209183008 62 144 7.0 0.0 0.00 0.00 0.00 86 1015.0
20221209181501 62 153 7.0 0.0 0.00 0.00 0.00 85 1015.2
20221209180059 62 153 9.0 0.0 0.00 0.00 0.00 85 1015.1
20221209174612 62 131 8.0 0.0 0.00 0.00 0.00 82 1015.3
20221209173100 62 150 4.0 0.0 0.00 0.00 0.00 82 1015.3
20221209171604 61 150 5.0 0.0 0.00 0.00 0.00 83 1015.2
20221209170105 61 162 4.0 0.0 0.00 0.00 0.00 85 1015.3
20221209164615 62 172 4.0 0.0 0.00 0.00 0.00 85 1015.5
20221209163115 62 156 4.0 0.0 0.00 0.00 0.00 84 1015.5
20221209161557 62 194 4.0 0.0 0.00 0.00 0.00 85 1015.6
20221209160100 62 163 4.0 0.0 0.00 0.00 0.00 85 1015.6
20221209154633 62 163 4.0 0.0 0.00 0.00 0.00 85 1015.6
20221209153103 62 178 4.0 0.0 0.00 0.00 0.00 86 1015.5
20221209151601 62 179 4.0 0.0 0.00 0.00 0.00 85 1015.5
20221209150104 63 179 5.0 0.0 0.00 0.00 0.00 85 1015.3
20221209144622 63 178 4.0 0.0 0.00 0.00 0.00 84 1015.2
20221209143103 63 173 5.0 0.0 0.00 0.00 0.00 83 1015.3
20221209141556 63 162 6.0 0.0 0.00 0.00 0.00 81 1015.1
20221209140058 64 188 5.0 0.0 0.00 0.00 0.00 81 1015.2
20221209134600 64 155 6.0 0.0 0.00 0.00 0.00 80 1015.3
20221209133051 64 148 8.0 0.0 0.00 0.00 0.00 80 1015.4
20221209131550 64 132 7.0 0.0 0.00 0.00 0.00 81 1015.3
20221209130049 64 164 6.0 0.0 0.00 0.00 0.00 81 1015.2
20221209124552 64 177 7.0 0.0 0.00 0.00 0.00 81 1015.3
20221209123100 65 156 5.0 0.0 0.00 0.00 0.00 80 1015.2
20221209121548 65 171 7.0 0.0 0.00 0.00 0.00 78 1015.2
20221209120055 65 134 6.0 0.0 0.00 0.00 0.00 78 1015.3
20221209114550 65 142 6.0 0.0 0.00 0.00 0.00 78 1015.3
20221209113042 65 144 6.0 0.0 0.00 0.00 0.00 80 1015.4
20221209111541 65 192 7.0 0.0 0.00 0.00 0.00 80 1015.6
20221209110039 65 198 6.0 0.0 0.00 0.00 0.00 80 1015.7
20221209104539 65 175 6.0 0.0 0.00 0.00 0.00 80 1015.9
20221209103037 65 192 7.0 0.0 0.00 0.00 0.00 80 1016.1
20221209101538 64 172 5.0 0.0 0.00 0.00 0.00 80 1016.2
20221209100040 64 153 6.0 0.0 0.00 0.00 0.00 79 1016.4
20221209094539 64 143 7.0 0.0 0.00 0.00 0.00 80 1016.6
20221209093035 64 156 8.0 0.0 0.00 0.00 0.00 80 1016.7
20221209091533 64 142 7.0 0.0 0.00 0.00 0.00 81 1016.9
20221209090052 64 144 7.0 0.0 0.00 0.00 0.00 81 1017.0
20221209084529 63 152 6.0 0.0 0.00 0.00 0.00 81 1017.1
20221209083027 63 153 5.0 0.0 0.00 0.00 0.00 81 1017.3
20221209081534 63 146 6.0 0.0 0.00 0.00 0.00 82 1017.4